Regional Weather Roundup
Issued by NWS Sterling, VA

Home | Current Version | Previous Version | Graphics & Text | Print | Product List | Glossary On
Versions: 1 2 3 4 5 6 7 8 9 10 11 12 13 14 15 16 17 18 19 20 21 22 23 24 25 26 27 28 29 30 31 32 33 34 35 36 37 38 39 40 41 42 43 44 45 46 47 48 49 50
082
ASUS41 KLWX 212110
RWRLWX

REGIONAL WEATHER ROUNDUP
NATIONAL WEATHER SERVICE BALTIMORE MD/WASHINGTON DC
400 PM EST SAT JAN 21 2017

Note: "FAIR" indicates few or no clouds below 12,000 feet
with no significant weather and/or obstructions to visibility.
 TC=TEMPERATURE CELSIUS

 * =Non NWS site. Station does not report precipitation (e.g. rain,
    snow, etc.), thunder, or fog.

DCZ001-MDZ009-015-VAZ040>042-051-053>054-212200-
WASHINGTON METRO

CITY           SKY/WX    TMP DP  RH WIND       PRES   REMARKS
WASHINGTON NAT CLOUDY    49  48  97 S7        29.83F
DULLES         FOG       49  47  93 SE5       29.80F VSB 1/2
ANDREWS AFB    CLOUDY    48  48 100 S6        29.81F
FT BELVOIR     CLOUDY    49  48  96 SE5       29.82S FOG
QUANTICO       FOG       48  48 100 CALM      29.83S VSB 1/2
COLLEGE PARK*  CLOUDY    48  46  93 CALM      29.82S
LEESBURG*      CLOUDY    50  50 100 S5        29.81F
MANASSAS*      CLOUDY   N/A N/A N/A CALM      29.82S FOG
GAITHERSBURG*  CLOUDY    48  45  87 SE5       29.84F VSB 1/2

$$

MDZ006>007-011-014-212200-
BALTIMORE METRO

CITY           SKY/WX    TMP DP  RH WIND       PRES   REMARKS
BWI AIRPORT    FOG       47  47 100 E7        29.82S VSB 3/4
MD SCIENCE CTR   N/A     47  44  90 MISG      29.83F
MARTIN STATE   FOG       45  45 100 E3        29.85F VSB 1/2
ANNAPOLIS      FOG       46  45  96 S7        29.84S VSB 1/2
FORT MEADE*    CLOUDY    46  45  93 SE3       29.84F

$$

MDZ012-015-019>023-212200-
MARYLAND EASTERN SHORE

CITY           SKY/WX    TMP DP  RH WIND       PRES   REMARKS
OCEAN CITY     FOG       45  45 100 SW7       29.85F VSB 1/4
SALISBURY      CLOUDY    50  48  93 S3        29.83F
BAY BRIDGE AP* FOG       46  46 100 S6        29.84S VSB 1
CAMBRIDGE*     CLOUDY    45  45 100 S6        29.84S
EASTON*        CLOUDY    48  46  93 SW5       29.87F

$$

MDZ017>025-212200-
SOUTHERN MARYLAND

CITY           SKY/WX    TMP DP  RH WIND       PRES   REMARKS
PATUXENT RIVER FOG       44  44 100 SE6       29.83F VSB 1/2
ST INIGOES     CLOUDY    49  47  93 SE3       29.83F
LEONARDTOWN*   CLOUDY    46  45  93 CALM      29.84F

$$

MDZ003>005-212200-
NORTH CENTRAL MARYLAND

CITY           SKY/WX    TMP DP  RH WIND       PRES   REMARKS
FREDERICK*     CLOUDY    48  48 100 CALM      29.83F FOG
HAGERSTOWN APT FOG       47  45  93 CALM      29.78F VSB 1/4
WESTMINSTER*     N/A     46  46 100 SE5       29.80F FOG

$$

MDZ501>502-212200-
WESTERN MARYLAND

CITY           SKY/WX    TMP DP  RH WIND       PRES   REMARKS
OAKLAND*         N/A     54  45  71 S3        29.75S
CUMBERLAND*    CLOUDY    46  46 100 CALM      29.80S

$$

VAZ025>031-212200-
SHENANDOAH VALLEY

CITY           SKY/WX    TMP DP  RH WIND       PRES   REMARKS
WINCHESTER*    CLOUDY    45  45 100 CALM      29.78S
FRONT ROYAL*   PTCLDY    50  46  87 NE5       29.76S
LURAY*         CLOUDY    54  50  87 NE6       29.75S
NEW MARKET*    CLOUDY    55  49  80 NE5       29.74S
STAUNTON*      CLOUDY    60  50  70 S5        29.77R
WAYNESBORO*    CLOUDY    58  48  69 E5        29.76S

$$

WVZ021-048>050-054>055-212200-
EASTERN WEST VIRGINIA PANHANDLE

CITY           SKY/WX    TMP DP  RH WIND       PRES   REMARKS
MARTINSBURG    CLOUDY    46  45  96 N3        29.78F FOG
PETERSBURG*    CLOUDY    57  49  73 E3        29.74S

$$

VAZ036>039-050-212200-
CENTRAL FOOTHILLS

CITY           SKY/WX    TMP DP  RH WIND       PRES   REMARKS
CHARLOTTESVILL CLOUDY    51  49  92 S5        29.81R FOG
CULPEPER*      CLOUDY    50  49  96 CALM      29.82S
ORANGE*          N/A     52  52 100 CALM      29.82F
GORDONSVILLE*  CLOUDY    50  50  99 CALM      29.80S
WARRENTON*     CLOUDY    51  47  86 S3        29.81S

$$

VAZ055>057-212200-
NORTH AND CENTRAL PIEDMONT

CITY           SKY/WX    TMP DP  RH WIND       PRES   REMARKS
FREDERICKSBRG* CLOUDY    51  51 100 SE5       29.81S FOG
STAFFORD*      CLOUDY    50  50 100 S3        29.85F FOG

$$

NCZ024-NYZ072-PAZ021-071-VAZ022-071-212200-
OTHER REGIONAL OBSERVATIONS

CITY           SKY/WX    TMP DP  RH WIND       PRES   REMARKS
NEW YORK CITY  PTCLDY    45  43  93 CALM      29.83S FOG
PHILADELPHIA   CLOUDY    46  45  93 SW5       29.85R FOG
PITTSBURGH     CLOUDY    63  51  65 SW10      29.68F
ROANOKE        CLOUDY    52  48  86 CALM      29.80S
RICHMOND       CLOUDY    50  50 100 SE3       29.82F FOG
RALEIGH        FOG       54  53  97 SE3       29.80F VSB 1/4

$$

ANZ530>537-212200-
MARINE OBSERVATIONS

STATION/POSITION TIME  TEMP    WIND        PRES
                       AIR SEA DIR/SP/G
                 (UTC) (F)     (DEG/KT/KT) (MB)
THOMAS PT LIGHT  2100   43 40  190/  7/  7   N/A
BALT KEY BRIDGE  2042   43     120/  5/  6 1010.0F
COVE POINT       2042   42     180/  5/  6 1010.9F
LEWISETTA        2042   47 44  130/  6/  6 1009.8F
SOLOMONS ISLAND  2042   44 42   90/  5/  5   N/A
PINEY POINT      2048          140/  7/  7   N/A

$$





USA.gov is the U.S. government's official web portal to all federal, state and local government web resources and services.